Date String (YYYY-MM-DD hh:mm:ss) UTC,Instrument flags,Ambient pressure (hPa),Sample flow (lpm),Bypass flow (lpm),Sample temperature (°C),Ambient temperature (°C),ASC tube jacket temperature (°C),LED temperature (°C),Box temperature (°C),Sample RH (%),Span deviation,Mass concentration (μg/m³),Mass concentration (μg/m³),Mass concentration (μg/m³)
DateTimeUTC,F1_M11,P_M11,Q1_M11,Q2_M11,T1_M11,T2_M11,T3_M11,T4_M11,T5_M11,U1_M11,ZSPAN_M11,X0_M11,X2_M11,X1_M11
2022-03-26 14:00:00,,0824.5,4.99,0.00,25.8,25.0,00.0,34.6,27.6,11.0,0000.0,0010.12,0003.90,0001.84
2022-03-26 14:01:00,,0824.6,5.00,0.00,25.8,25.0,00.0,34.6,27.6,10.9,0000.0,0009.86,0003.85,0001.82
2022-03-26 14:02:00,,0824.7,5.01,0.00,25.8,25.1,00.0,34.6,27.6,10.9,0000.0,0009.82,0003.85,0001.80
2022-03-26 14:03:00,,0824.6,5.00,0.00,25.8,25.0,00.0,34.7,27.7,11.1,0000.0,0009.87,0003.86,0001.79
2022-03-26 14:04:00,,0824.4,5.00,0.00,25.8,25.0,00.0,34.7,27.7,11.1,0000.0,0009.72,0003.87,0001.81
2022-03-26 14:05:00,,0824.5,4.99,0.00,25.8,25.0,00.0,34.7,27.7,11.2,0000.0,0009.64,0003.96,0001.84
2022-03-26 14:06:00,,0824.5,5.00,0.00,25.8,25.0,00.0,34.7,27.7,11.3,0000.0,0009.49,0003.95,0001.82
2022-03-26 14:07:00,,0824.4,5.00,0.00,25.9,25.0,00.0,34.7,27.7,11.4,0000.0,0009.11,0003.99,0001.81
2022-03-26 14:08:00,,0824.4,5.00,0.00,25.9,25.0,00.0,34.7,27.7,11.3,0000.0,0008.80,0003.92,0001.81
2022-03-26 14:09:00,,0824.4,5.00,0.00,25.9,25.0,00.0,34.7,27.7,11.1,0000.0,0008.73,0003.88,0001.80
2022-03-26 14:10:00,,0824.4,5.00,0.00,25.9,25.0,00.0,34.7,27.7,11.0,0000.0,0008.66,0003.85,0001.78
2022-03-26 14:11:00,,0824.5,5.00,0.00,25.9,25.0,00.0,34.8,27.7,11.1,0000.0,0009.21,0003.84,0001.76
2022-03-26 14:12:00,,0824.4,5.00,0.00,25.9,25.1,00.0,34.8,27.7,11.1,0000.0,0009.40,0003.83,0001.75
2022-03-26 14:13:00,,0824.6,5.00,0.00,25.9,25.1,00.0,34.8,27.7,11.4,0000.0,0009.62,0003.85,0001.77
2022-03-26 14:14:00,,0824.6,5.00,0.00,25.9,25.1,00.0,34.8,27.8,11.6,0000.0,0009.79,0003.87,0001.78
2022-03-26 14:15:00,,0824.6,5.00,0.00,25.9,25.1,00.0,34.8,27.8,11.5,0000.0,0009.83,0003.85,0001.78
2022-03-26 14:16:00,,0824.6,4.99,0.00,25.9,25.1,00.0,34.8,27.8,11.8,0000.0,0009.79,0003.82,0001.77
2022-03-26 14:17:00,,0824.6,5.00,0.00,25.9,25.1,00.0,34.8,27.8,12.0,0000.0,0010.17,0003.82,0001.77
2022-03-26 14:18:00,,0824.5,5.00,0.00,25.9,25.0,00.0,34.8,27.7,11.3,0000.0,0010.08,0003.77,0001.79
2022-03-26 14:19:00,,0824.4,5.00,0.00,25.9,25.0,00.0,34.8,27.7,11.8,0000.0,0010.36,0003.77,0001.78
2022-03-26 14:20:00,,0824.4,5.00,0.00,25.9,25.0,00.0,34.8,27.7,12.9,0000.0,0010.93,0003.80,0001.81
2022-03-26 14:21:00,,0824.6,5.00,0.00,25.9,25.0,00.0,34.8,27.7,12.6,0000.0,0011.25,0003.91,0001.85
2022-03-26 14:22:00,,0824.6,5.01,0.00,25.9,25.0,00.0,34.8,27.8,12.5,0000.0,0011.30,0003.95,0001.90
2022-03-26 14:23:00,,0824.6,5.00,0.00,25.9,25.0,00.0,34.8,27.8,12.6,0000.0,0011.09,0003.97,0001.93
2022-03-26 14:24:00,,0824.7,5.01,0.00,25.9,25.0,00.0,34.8,27.8,12.7,0000.0,0010.88,0003.93,0001.94
2022-03-26 14:25:00,,0824.6,5.00,0.00,25.9,25.0,00.0,34.8,27.7,13.6,0000.0,0010.69,0003.91,0001.95
2022-03-26 14:26:00,,0824.6,5.00,0.00,25.8,25.0,00.0,34.8,27.7,12.0,0000.0,0011.96,0003.96,0001.95
2022-03-26 14:27:00,,0824.6,5.00,0.00,25.8,25.0,00.0,34.8,27.7,11.5,0000.0,0012.66,0003.92,0001.93
2022-03-26 14:28:00,,0824.6,4.99,0.00,25.8,25.0,00.0,34.8,27.7,12.6,0000.0,0012.63,0003.95,0001.93
2022-03-26 14:29:00,,0824.6,5.00,0.00,25.9,25.0,00.0,34.8,27.7,12.0,0000.0,0012.69,0003.97,0001.93
2022-03-26 14:30:00,,0824.6,5.01,0.00,25.8,25.0,00.0,34.8,27.7,11.9,0000.0,0012.39,0003.97,0001.93
2022-03-26 14:31:00,,0824.6,4.99,0.00,25.8,25.0,00.0,34.8,27.7,13.1,0000.0,0012.25,0003.92,0001.91
2022-03-26 14:32:00,,0824.6,5.01,0.00,25.9,25.1,00.0,34.8,27.7,12.8,0000.0,0012.85,0003.84,0001.89
2022-03-26 14:33:00,,0824.7,5.01,0.00,25.9,25.1,00.0,34.8,27.7,14.6,0000.0,0012.56,0003.85,0001.86
2022-03-26 14:34:00,,0824.6,4.98,0.00,25.9,25.1,00.0,34.8,27.7,14.3,0000.0,0012.65,0003.92,0001.88
2022-03-26 14:35:00,,0824.6,5.00,0.00,25.9,25.2,00.0,34.8,27.8,14.0,0000.0,0012.75,0003.97,0001.91
2022-03-26 14:36:00,,0824.6,5.00,0.00,26.0,25.2,00.0,34.8,27.8,14.0,0000.0,0012.94,0003.97,0001.92
2022-03-26 14:37:00,,0824.6,5.00,0.00,26.0,25.2,00.0,34.8,27.8,13.2,0000.0,0011.66,0003.89,0001.92
2022-03-26 14:38:00,,0824.6,5.00,0.00,26.0,25.3,00.0,34.8,27.8,12.8,0000.0,0010.64,0003.86,0001.93
2022-03-26 14:39:00,,0824.6,5.01,0.00,26.0,25.3,00.0,34.9,27.9,12.6,0000.0,0010.67,0003.84,0001.94
2022-03-26 14:40:00,,0824.5,5.00,0.00,26.0,25.3,00.0,34.9,27.9,13.1,0000.0,0011.05,0003.86,0001.93
2022-03-26 14:41:00,,0824.5,5.00,0.00,26.1,25.3,00.0,34.9,27.9,13.8,0000.0,0011.12,0003.84,0001.95
2022-03-26 14:42:00,,0824.6,5.00,0.00,26.1,25.4,00.0,34.9,27.9,14.0,0000.0,0010.84,0003.87,0001.98
2022-03-26 14:43:00,,0824.5,5.00,0.00,26.1,25.4,00.0,34.9,28.0,13.4,0000.0,0010.30,0003.90,0001.99
2022-03-26 14:44:00,,0824.5,5.00,0.00,26.1,25.4,00.0,34.9,28.0,13.4,0000.0,0010.24,0003.85,0002.00
2022-03-26 14:45:00,,0824.5,5.00,0.00,26.2,25.4,00.0,35.0,28.0,13.1,0000.0,0010.33,0003.86,0002.00
2022-03-26 14:46:00,,0824.4,4.99,0.00,26.2,25.5,00.0,35.0,28.0,13.6,0000.0,0010.42,0003.89,0001.99
2022-03-26 14:47:00,,0824.5,5.00,0.00,26.2,25.5,00.0,35.0,28.0,13.0,0000.0,0010.19,0003.87,0001.95
2022-03-26 14:48:00,,0824.5,5.00,0.00,26.2,25.5,00.0,35.0,28.1,12.7,0000.0,0010.22,0003.90,0001.94
2022-03-26 14:49:00,,0824.5,5.00,0.00,26.2,25.5,00.0,35.0,28.1,12.6,0000.0,0010.77,0003.96,0001.95
2022-03-26 14:50:00,,0824.5,5.00,0.00,26.2,25.5,00.0,35.1,28.1,13.1,0000.0,0010.57,0003.96,0001.95
2022-03-26 14:51:00,,0824.5,5.00,0.00,26.2,25.5,00.0,35.1,28.1,13.4,0000.0,0010.28,0003.94,0001.94
2022-03-26 14:52:00,,0824.4,5.00,0.00,26.2,25.4,00.0,35.1,28.1,13.1,0000.0,0010.21,0003.94,0001.94
2022-03-26 14:53:00,,0824.5,5.00,0.00,26.2,25.4,00.0,35.1,28.1,13.0,0000.0,0010.38,0003.98,0001.93
2022-03-26 14:54:00,,0824.5,5.00,0.00,26.2,25.4,00.0,35.1,28.1,13.0,0000.0,0010.15,0003.98,0001.91
2022-03-26 14:55:00,,0824.5,4.99,0.00,26.2,25.4,00.0,35.1,28.1,13.0,0000.0,0010.15,0003.98,0001.89
2022-03-26 14:56:00,,0824.4,5.00,0.00,26.2,25.4,00.0,35.1,28.1,13.1,0000.0,0010.13,0003.94,0001.86
2022-03-26 14:57:00,,0824.4,4.99,0.00,26.2,25.4,00.0,35.1,28.1,13.6,0000.0,0009.90,0003.84,0001.83
2022-03-26 14:58:00,,0824.4,5.00,0.00,26.2,25.4,00.0,35.1,28.1,14.0,0000.0,0010.13,0003.88,0001.83
2022-03-26 14:59:00,,0824.4,5.00,0.00,26.2,25.5,00.0,35.1,28.1,14.2,0000.0,0010.52,0003.96,0001.85
